EW1953 Weather Reports


time (UTC)temp
C
wind
direction
speed
KPH
gust
KPH
rain 1hr
cm
rain 24hr
cm
rain mn
cm
humidity
%
barometer
mb
20190418122208 22 351 6.4 22.5 0.00 0.00 0.00 41 1021.0
20190418121712 22 355 4.8 11.3 0.00 0.00 0.00 41 1021.1
20190418121208 22 48 4.8 14.5 0.00 0.00 0.00 42 1021.1
20190418120706 22 294 3.2 14.5 0.00 0.00 0.00 43 1021.2
20190418120209 21 31 4.8 14.5 0.00 0.00 0.00 47 1021.2
20190418115707 21 321 4.8 17.7 0.00 0.00 0.00 45 1021.2
20190418115206 21 252 4.8 17.7 0.00 0.00 0.00 47 1021.3
20190418114710 21 41 6.4 17.7 0.00 0.00 0.00 45 1021.4
20190418114206 21 55 6.4 17.7 0.00 0.00 0.00 43 1021.5
20190418113709 21 313 4.8 14.5 0.00 0.00 0.00 46 1021.5
20190418113212 21 34 4.8 14.5 0.00 0.00 0.00 46 1021.5
20190418112705 21 51 4.8 14.5 0.00 0.00 0.00 45 1021.6
20190418112206 20 25 6.4 14.5 0.00 0.00 0.00 47 1021.7
20190418111706 21 332 4.8 11.3 0.00 0.00 0.00 43 1021.6
20190418111207 21 44 3.2 14.5 0.00 0.00 0.00 45 1021.6
20190418110708 21 346 4.8 14.5 0.00 0.00 0.00 45 1021.7
20190418110208 20 22 4.8 14.5 0.00 0.00 0.00 44 1021.7
20190418105708 20 38 3.2 14.5 0.00 0.00 0.00 46 1021.7
20190418105211 20 26 4.8 14.5 0.00 0.00 0.00 48 1021.7
20190418104707 20 26 4.8 14.5 0.00 0.00 0.00 45 1021.8
20190418104220 20 0 3.2 9.7 0.00 0.00 0.00 47 1021.8
20190418103716 20 207 3.2 9.7 0.00 0.00 0.00 48 1021.9
20190418103209 20 35 3.2 16.1 0.00 0.00 0.00 49 1021.8
20190418102706 20 338 4.8 16.1 0.00 0.00 0.00 48 1021.8
20190418102207 20 9 4.8 14.5 0.00 0.00 0.00 47 1021.9
20190418101707 20 0 3.2 6.4 0.00 0.00 0.00 48 1022.0
20190418101208 20 343 1.6 6.4 0.00 0.00 0.00 50 1021.9
20190418100706 19 22 1.6 8.0 0.00 0.00 0.00 51 1022.0
20190418100210 19 355 1.6 12.9 0.00 0.00 0.00 52 1022.0
20190418095707 18 347 3.2 17.7 0.00 0.00 0.00 53 1022.0
20190418095208 18 343 4.8 17.7 0.00 0.00 0.00 52 1022.1
20190418094707 18 40 4.8 17.7 0.00 0.00 0.00 51 1022.0
20190418094206 18 28 3.2 11.3 0.00 0.00 0.00 56 1022.2
20190418093708 17 355 3.2 14.5 0.00 0.00 0.00 54 1022.2
20190418093207 17 355 4.8 14.5 0.00 0.00 0.00 56 1022.2
20190418092715 17 277 4.8 9.7 0.00 0.00 0.00 55 1022.3
20190418092207 17 19 3.2 9.7 0.00 0.00 0.00 58 1022.3
20190418091207 16 349 1.6 6.4 0.00 0.00 0.00 57 1022.3
20190418090706 16 309 0.0 8.0 0.00 0.00 0.00 62 1022.3
20190418090208 16 355 1.6 8.0 0.00 0.00 0.00 62 1022.3
20190418085733 16 236 3.2 8.0 0.00 0.00 0.00 62 1022.2
20190418085225 16 28 1.6 11.3 0.00 0.00 0.00 61 1022.3
20190418084726 15 39 1.6 11.3 0.00 0.00 0.00 63 1022.3
20190418084206 15 36 3.2 11.3 0.00 0.00 0.00 64 1022.3
20190418083722 15 18 1.6 9.7 0.00 0.00 0.00 64 1022.3
20190418083227 15 343 1.6 9.7 0.00 0.00 0.00 66 1022.3
20190418082733 15 28 3.2 9.7 0.00 0.00 0.00 64 1022.3
20190418082221 15 325 3.2 8.0 0.00 0.00 0.00 66 1022.3
20190418081733 14 28 3.2 6.4 0.00 0.00 0.00 65 1022.3
20190418081230 14 5 1.6 4.8 0.00 0.00 0.00 67 1022.3
20190418080729 13 28 0.0 4.8 0.00 0.00 0.00 67 1022.2
20190418080219 13 32 0.0 4.8 0.00 0.00 0.00 67 1022.2
20190418075705 13 340 1.6 4.8 0.00 0.00 0.00 68 1022.1
20190418075232 13 0 1.6 6.4 0.00 0.00 0.00 70 1022.1
20190418074728 12 264 0.0 6.4 0.00 0.00 0.00 73 1022.0
20190418074206 12 355 0.0 3.2 0.00 0.00 0.00 76 1022.1
20190418073720 11 325 0.0 3.2 0.00 0.00 0.00 82 1022.1
20190418073208 11 13 0.0 3.2 0.00 0.00 0.00 84 1022.0
20190418072712 10 30 0.0 3.2 0.00 0.00 0.00 86 1022.0
20190418072228 10 34 0.0 0.0 0.00 0.00 0.00 91 1022.0
20190418071712 10 31 0.0 0.0 0.00 0.00 0.00 94 1022.0
20190418071246 9 32 0.0 0.0 0.00 0.00 0.00 95 1021.9
20190418070729 9 32 0.0 0.0 0.00 0.00 0.00 96 1021.9
20190418070213 8 32 0.0 1.6 0.00 0.00 0.00 97 1022.0
20190418065706 8 32 0.0 3.2 0.00 0.00 0.00 98 1021.9
20190418065207 8 32 0.0 6.4 0.00 0.00 0.00 98 1021.9
20190418064705 8 32 0.0 6.4 0.00 0.00 0.00 98 1021.9
20190418064222 7 44 0.0 3.2 0.00 0.00 0.00 98 1022.0
20190418063710 7 49 0.0 0.0 0.00 0.00 0.00 98 1022.0
20190418063206 7 42 0.0 0.0 0.00 0.00 0.00 98 1021.8
20190418062707 6 42 0.0 0.0 0.00 0.00 0.00 98 1021.7
20190418062218 6 42 0.0 0.0 0.00 0.00 0.00 98 1021.7
20190418061720 6 42 0.0 0.0 0.00 0.00 0.00 98 1021.7
20190418061212 6 42 0.0 0.0 0.00 0.00 0.00 98 1021.6
20190418060712 6 42 0.0 0.0 0.00 0.00 0.00 97 1021.6
20190418060234 5 42 0.0 0.0 0.00 0.00 0.00 97 1021.5
20190418055710 5 42 0.0 0.0 0.00 0.00 0.00 97 1021.6
20190418055221 5 42 0.0 0.0 0.00 0.00 0.00 97 1021.5
20190418054724 5 42 0.0 0.0 0.00 0.00 0.00 97 1021.4
20190418054223 5 42 0.0 0.0 0.00 0.00 0.00 97 1021.4
20190418053730 4 42 0.0 0.0 0.00 0.00 0.00 97 1021.4
20190418053222 4 42 0.0 0.0 0.00 0.00 0.00 97 1021.3
20190418052729 4 42 0.0 0.0 0.00 0.00 0.00 96 1021.3
20190418052225 4 42 0.0 0.0 0.00 0.00 0.00 96 1021.2
20190418051722 4 42 0.0 0.0 0.00 0.00 0.00 96 1021.3
20190418051205 3 42 0.0 0.0 0.00 0.00 0.00 96 1021.2
20190418050733 3 42 0.0 0.0 0.00 0.00 0.00 96 1021.3
20190418050226 3 42 0.0 0.0 0.00 0.00 0.00 96 1021.2
20190418045725 3 42 0.0 0.0 0.00 0.00 0.00 96 1021.1
20190418045228 3 42 0.0 0.0 0.00 0.00 0.00 95 1021.0
20190418044733 3 42 0.0 0.0 0.00 0.00 0.00 95 1021.0
20190418044223 3 42 0.0 0.0 0.00 0.00 0.00 95 1020.9
20190418043731 3 42 0.0 0.0 0.00 0.00 0.00 95 1020.9
20190418043225 4 42 0.0 0.0 0.00 0.00 0.00 95 1020.8
20190418042729 4 42 0.0 0.0 0.00 0.00 0.00 95 1020.8
20190418042222 4 42 0.0 0.0 0.00 0.00 0.00 95 1020.8
20190418041726 4 42 0.0 0.0 0.00 0.00 0.00 95 1020.7
20190418041231 4 42 0.0 0.0 0.00 0.00 0.00 95 1020.8
20190418040729 4 42 0.0 0.0 0.00 0.00 0.00 95 1020.7
20190418040230 5 42 0.0 0.0 0.00 0.00 0.00 95 1020.7
20190418035721 5 42 0.0 0.0 0.00 0.00 0.00 95 1020.8
20190418035223 5 42 0.0 0.0 0.00 0.00 0.00 95 1020.7
20190418034727 5 42 0.0 0.0 0.00 0.00 0.00 95 1020.8
20190418034225 5 42 0.0 0.0 0.00 0.00 0.00 95 1020.7
20190418033723 5 42 0.0 0.0 0.00 0.00 0.00 95 1020.7
20190418033230 5 42 0.0 0.0 0.00 0.00 0.00 95 1020.8
20190418032716 5 42 0.0 0.0 0.00 0.00 0.00 95 1020.9
20190418032226 5 42 0.0 0.0 0.00 0.00 0.00 95 1020.9
20190418031734 5 42 0.0 0.0 0.00 0.00 0.00 95 1020.9
20190418031229 5 42 0.0 0.0 0.00 0.00 0.00 95 1020.9
20190418030732 6 42 0.0 0.0 0.00 0.00 0.00 95 1021.0
20190418030231 6 42 0.0 0.0 0.00 0.00 0.00 95 1021.0
20190418025726 6 42 0.0 0.0 0.00 0.00 0.00 95 1021.0
20190418025223 6 42 0.0 0.0 0.00 0.00 0.00 95 1021.1
20190418024732 6 42 0.0 0.0 0.00 0.00 0.00 95 1021.1
20190418024226 6 42 0.0 0.0 0.00 0.00 0.00 96 1021.1
20190418023723 6 42 0.0 0.0 0.00 0.00 0.00 96 1021.1
20190418023227 6 42 0.0 0.0 0.00 0.00 0.00 96 1021.2
20190418022732 6 42 0.0 0.0 0.00 0.00 0.00 96 1021.1
20190418022235 6 42 0.0 0.0 0.00 0.00 0.00 96 1021.1
20190418021720 6 42 0.0 0.0 0.00 0.00 0.00 96 1021.1
20190418021225 6 42 0.0 0.0 0.00 0.00 0.00 96 1021.1
20190418020728 6 42 0.0 0.0 0.00 0.00 0.00 96 1021.1
20190418020232 6 42 0.0 0.0 0.00 0.00 0.00 96 1021.1
20190418015727 6 42 0.0 0.0 0.00 0.00 0.00 95 1021.0
20190418015228 6 42 0.0 0.0 0.00 0.00 0.00 96 1021.1
20190418014733 6 42 0.0 0.0 0.00 0.00 0.00 96 1021.0
20190418014230 6 42 0.0 0.0 0.00 0.00 0.00 96 1021.0
20190418013723 6 42 0.0 0.0 0.00 0.00 0.00 96 1020.9
20190418013232 6 42 0.0 0.0 0.00 0.00 0.00 96 1020.9
20190418012723 6 42 0.0 0.0 0.00 0.00 0.00 96 1020.8
20190418012221 6 42 0.0 0.0 0.00 0.00 0.00 96 1020.9
20190418011734 6 42 0.0 0.0 0.00 0.00 0.00 96 1020.9
20190418011230 5 42 0.0 0.0 0.00 0.00 0.00 95 1020.9
20190418010733 5 42 0.0 0.0 0.00 0.00 0.00 95 1020.9
20190418010232 5 42 0.0 0.0 0.00 0.00 0.00 95 1020.9
20190418005706 5 42 0.0 0.0 0.00 0.00 0.00 95 1020.8
20190418005230 5 42 0.0 0.0 0.00 0.00 0.00 94 1020.8
20190418004722 5 42 0.0 0.0 0.00 0.00 0.00 94 1020.9
20190418004234 5 42 0.0 0.0 0.00 0.00 0.00 94 1021.0
20190418003732 5 42 0.0 0.0 0.00 0.00 0.00 94 1021.0
20190418003230 5 42 0.0 0.0 0.00 0.00 0.00 94 1020.9
20190418002727 5 42 0.0 0.0 0.00 0.00 0.00 94 1021.0
20190418002221 5 42 0.0 0.0 0.00 0.00 0.00 94 1021.0
20190418001731 6 42 0.0 0.0 0.00 0.00 0.00 94 1021.0
20190418001222 6 42 0.0 0.0 0.00 0.00 0.00 94 1021.0
20190418000732 6 42 0.0 0.0 0.00 0.00 0.00 94 1021.0
20190418000228 6 42 0.0 0.0 0.00 0.00 0.00 94 1021.0
20190417235726 6 42 0.0 0.0 0.00 0.00 0.00 93 1021.1
20190417235222 6 42 0.0 0.0 0.00 0.00 0.00 93 1021.1
20190417234734 6 42 0.0 0.0 0.00 0.00 0.00 93 1021.0
20190417234234 6 42 0.0 0.0 0.00 0.00 0.00 93 1021.0
20190417233729 6 42 0.0 0.0 0.00 0.00 0.00 93 1021.0
20190417233227 6 42 0.0 0.0 0.00 0.00 0.00 93 1021.1
20190417232721 6 42 0.0 0.0 0.00 0.00 0.00 93 1021.1
20190417232235 6 42 0.0 0.0 0.00 0.00 0.00 93 1021.1
20190417231724 6 42 0.0 0.0 0.00 0.00 0.00 93 1021.1
20190417231231 6 42 0.0 0.0 0.00 0.00 0.00 93 1021.1
20190417230726 6 42 0.0 0.0 0.00 0.00 0.00 93 1021.0
20190417230223 6 42 0.0 0.0 0.00 0.00 0.00 93 1021.0
20190417225722 6 42 0.0 0.0 0.00 0.00 0.00 92 1021.0
20190417225229 7 42 0.0 0.0 0.00 0.00 0.00 92 1021.0
20190417224725 7 42 0.0 0.0 0.00 0.00 0.00 92 1021.1
20190417224232 7 42 0.0 0.0 0.00 0.00 0.00 92 1021.2
20190417223733 7 42 0.0 0.0 0.00 0.00 0.00 92 1021.1
20190417223220 7 42 0.0 0.0 0.00 0.00 0.00 92 1021.1
20190417222724 7 42 0.0 0.0 0.00 0.00 0.00 92 1021.1
20190417222227 7 42 0.0 0.0 0.00 0.00 0.00 92 1021.1
20190417221722 7 42 0.0 0.0 0.00 0.00 0.00 92 1021.1
20190417221223 7 42 0.0 0.0 0.00 0.00 0.00 92 1021.1
20190417220725 7 42 0.0 0.0 0.00 0.00 0.00 92 1021.0
20190417220215 7 42 0.0 0.0 0.00 0.00 0.00 92 1021.0
20190417215710 7 42 0.0 0.0 0.00 0.00 0.00 92 1020.8
20190417215213 7 42 0.0 0.0 0.00 0.00 0.00 91 1020.8
20190417214719 8 42 0.0 0.0 0.00 0.00 0.00 91 1020.8
20190417214206 8 42 0.0 0.0 0.00 0.00 0.00 91 1020.7
20190417213708 8 42 0.0 0.0 0.00 0.00 0.00 91 1020.6
20190417213219 8 42 0.0 0.0 0.00 0.00 0.00 90 1020.7
20190417212715 8 42 0.0 0.0 0.00 0.00 0.00 90 1020.6
20190417212208 8 42 0.0 0.0 0.00 0.00 0.00 90 1020.6
20190417211720 8 42 0.0 0.0 0.00 0.00 0.00 90 1020.6
20190417211226 8 42 0.0 0.0 0.00 0.00 0.00 90 1020.6
20190417210706 8 42 0.0 0.0 0.00 0.00 0.00 89 1020.5
20190417210211 8 42 0.0 0.0 0.00 0.00 0.00 89 1020.7
20190417205705 8 42 0.0 0.0 0.00 0.00 0.00 89 1020.7
20190417205223 9 42 0.0 0.0 0.00 0.00 0.00 89 1020.7
20190417204711 9 42 0.0 0.0 0.00 0.00 0.00 88 1020.7
20190417204206 9 42 0.0 0.0 0.00 0.00 0.00 89 1020.7
20190417203713 9 42 0.0 0.0 0.00 0.00 0.00 89 1020.7
20190417203226 9 42 0.0 0.0 0.00 0.00 0.00 89 1020.6
20190417202710 9 42 0.0 0.0 0.00 0.00 0.00 88 1020.7
20190417202211 9 42 0.0 0.0 0.00 0.00 0.00 88 1020.7
20190417201707 10 42 0.0 0.0 0.00 0.00 0.00 88 1020.6
20190417201219 10 42 0.0 0.0 0.00 0.00 0.00 88 1020.7
20190417200709 10 42 0.0 0.0 0.00 0.00 0.00 87 1020.6
20190417200215 10 42 0.0 0.0 0.00 0.00 0.00 87 1020.5
20190417195723 10 42 0.0 0.0 0.00 0.00 0.00 86 1020.5
20190417195206 10 42 0.0 0.0 0.00 0.00 0.00 86 1020.5
20190417194721 10 42 0.0 0.0 0.00 0.00 0.00 85 1020.5
20190417194215 10 42 0.0 0.0 0.00 0.00 0.00 85 1020.4
20190417193713 11 42 0.0 0.0 0.00 0.00 0.00 84 1020.5
20190417193232 11 42 0.0 0.0 0.00 0.00 0.00 83 1020.4
20190417192705 11 42 0.0 0.0 0.00 0.00 0.00 82 1020.4
20190417192206 11 42 0.0 0.0 0.00 0.00 0.00 81 1020.4
20190417191706 12 42 0.0 0.0 0.00 0.00 0.00 80 1020.3
20190417191206 12 42 0.0 0.0 0.00 0.00 0.00 80 1020.3
20190417190711 12 42 0.0 0.0 0.00 0.00 0.00 79 1020.2
20190417190230 12 42 0.0 0.0 0.00 0.00 0.00 78 1020.2
20190417185711 12 42 0.0 3.2 0.00 0.00 0.00 78 1020.1
20190417185209 13 42 0.0 4.8 0.00 0.00 0.00 77 1020.0
20190417184716 13 42 0.0 4.8 0.00 0.00 0.00 77 1020.0
20190417184211 13 43 0.0 4.8 0.00 0.00 0.00 76 1019.9
20190417183707 13 40 0.0 3.2 0.00 0.00 0.00 76 1020.0
20190417183208 13 40 0.0 6.4 0.00 0.00 0.00 75 1020.0
20190417182712 13 45 1.6 11.3 0.00 0.00 0.00 75 1020.0
20190417182221 14 45 1.6 11.3 0.00 0.00 0.00 74 1019.9
20190417181716 14 25 1.6 9.7 0.00 0.00 0.00 74 1019.9
20190417181207 14 41 0.0 6.4 0.00 0.00 0.00 74 1019.9
20190417180716 14 40 1.6 6.4 0.00 0.00 0.00 74 1019.9
20190417180217 14 12 0.0 3.2 0.00 0.00 0.00 74 1019.9
20190417175711 15 38 0.0 4.8 0.00 0.00 0.00 73 1019.9
20190417175208 15 39 0.0 4.8 0.00 0.00 0.00 73 1019.8
20190417174706 15 42 1.6 4.8 0.00 0.00 0.00 73 1019.9
20190417174213 15 39 1.6 4.8 0.00 0.00 0.00 72 1019.9
20190417173706 15 40 1.6 4.8 0.00 0.00 0.00 73 1019.9
20190417173226 15 42 0.0 1.6 0.00 0.00 0.00 73 1019.9
20190417172706 15 26 0.0 3.2 0.00 0.00 0.00 73 1019.9
20190417172215 15 28 0.0 4.8 0.00 0.00 0.00 73 1020.0
20190417171709 15 28 0.0 4.8 0.00 0.00 0.00 71 1019.9
20190417171229 15 45 0.0 4.8 0.00 0.00 0.00 71 1019.9
20190417170727 15 46 0.0 4.8 0.00 0.00 0.00 71 1020.0
20190417170206 15 49 0.0 4.8 0.00 0.00 0.00 71 1020.0
20190417165715 15 50 0.0 4.8 0.00 0.00 0.00 71 1020.0
20190417165206 15 348 0.0 4.8 0.00 0.00 0.00 71 1020.0
20190417164706 15 348 1.6 4.8 0.00 0.00 0.00 70 1020.0
20190417164206 15 48 1.6 4.8 0.00 0.00 0.00 69 1020.0
20190417163711 15 48 0.0 4.8 0.00 0.00 0.00 68 1020.0
20190417163206 15 46 0.0 4.8 0.00 0.00 0.00 68 1020.0
20190417162706 15 46 0.0 4.8 0.00 0.00 0.00 68 1020.0
20190417162207 15 19 0.0 4.8 0.00 0.00 0.00 68 1020.0
20190417161718 15 38 0.0 6.4 0.00 0.00 0.00 67 1019.9
20190417161231 15 38 1.6 6.4 0.00 0.00 0.00 68 1019.9
20190417160707 15 24 1.6 8.0 0.00 0.00 0.00 68 1020.0
20190417160217 15 49 1.6 9.7 0.00 0.00 0.00 68 1020.0
20190417155718 15 44 1.6 9.7 0.00 0.00 0.00 67 1020.1
20190417155223 15 23 1.6 9.7 0.00 0.00 0.00 67 1020.2
20190417154706 15 38 1.6 4.8 0.00 0.00 0.00 68 1020.2
20190417154215 15 9 0.0 4.8 0.00 0.00 0.00 68 1020.1
20190417153716 15 26 0.0 4.8 0.00 0.00 0.00 68 1020.1
20190417153219 15 26 0.0 4.8 0.00 0.00 0.00 68 1020.1
20190417152710 15 355 0.0 3.2 0.00 0.00 0.00 67 1020.1
20190417152208 15 5 0.0 3.2 0.00 0.00 0.00 68 1020.1
20190417151716 15 255 0.0 3.2 0.00 0.00 0.00 68 1020.1
20190417151215 15 255 0.0 3.2 0.00 0.00 0.00 68 1020.1
20190417150710 15 254 0.0 3.2 0.00 0.00 0.00 67 1020.1
20190417150209 15 0 0.0 3.2 0.00 0.00 0.00 68 1020.1
20190417145712 15 19 0.0 3.2 0.00 0.00 0.00 67 1020.2
20190417145209 15 19 0.0 3.2 0.00 0.00 0.00 66 1020.1
20190417144706 15 20 0.0 0.0 0.00 0.00 0.00 67 1020.1
20190417144217 15 208 0.0 0.0 0.00 0.00 0.00 67 1020.1
20190417143706 15 208 0.0 0.0 0.00 0.00 0.00 68 1020.2
20190417143208 15 238 0.0 0.0 0.00 0.00 0.00 66 1020.1
20190417142707 15 15 0.0 0.0 0.00 0.00 0.00 68 1020.1
20190417142207 15 133 0.0 0.0 0.00 0.00 0.00 68 1020.2
20190417141716 15 193 0.0 0.0 0.00 0.00 0.00 68 1020.2
20190417141218 15 192 0.0 3.2 0.00 0.00 0.00 69 1020.2
20190417140706 15 183 0.0 3.2 0.00 0.00 0.00 70 1020.3
20190417140228 15 180 0.0 3.2 0.00 0.00 0.00 68 1020.2
20190417135711 15 233 0.0 0.0 0.00 0.00 0.00 67 1020.2
20190417135226 15 257 0.0 0.0 0.00 0.00 0.00 68 1020.2
20190417134708 15 257 0.0 1.6 0.00 0.00 0.00 69 1020.2
20190417134218 15 284 0.0 3.2 0.00 0.00 0.00 70 1020.1
20190417133714 15 286 0.0 3.2 0.00 0.00 0.00 68 1020.2
20190417133220 15 286 0.0 4.8 0.00 0.00 0.00 68 1020.2
20190417132714 15 261 1.6 4.8 0.00 0.00 0.00 67 1020.3
20190417132210 15 29 0.0 4.8 0.00 0.00 0.00 68 1020.2
20190417131708 15 145 0.0 6.4 0.00 0.00 0.00 68 1020.2
20190417131220 15 153 1.6 6.4 0.00 0.00 0.00 70 1020.2
20190417130715 15 176 1.6 9.7 0.00 0.00 0.00 68 1020.2
20190417130212 15 160 1.6 9.7 0.00 0.00 0.00 69 1020.2
20190417125716 15 190 1.6 9.7 0.00 0.00 0.00 68 1020.2
20190417125211 15 170 1.6 6.4 0.00 0.00 0.00 68 1020.2
20190417124716 15 173 1.6 6.4 0.00 0.00 0.00 68 1020.2
20190417124220 15 160 1.6 8.0 0.00 0.00 0.00 67 1020.2
20190417123733 15 176 3.2 9.7 0.00 0.00 0.00 68 1020.2
20190417123235 15 192 3.2 9.7 0.00 0.00 0.00 68 1020.2
20190417122723 15 171 1.6 9.7 0.00 0.00 0.00 70 1020.2